Lid_Strength_Index
3 3 2 2 2 2 2 2 2 2 1 1 1 1 1 1 1 3 4 2 1 -2 -0 6 6 6 7 8 8 9 12 12 12 11 11 7 8 6 4 6 6 5 5 4 2
3 3 2 2 2 2 2 2 2 2 1 1 1 1 1 1 4 5 1 -2 -3 -3 6 7 8 7 9 9 10 11 11 10 8 8 9 7 8 7 7 7 7 6 4 3 2
4 3 2 2 2 2 2 2 2 1 1 1 1 1 1 2 6 4 -4 -3 -4 -1 5 6 6 7 10 9 7 8 10 8 8 7 6 7 8 6 8 9 7 7 6 4 3
4 3 2 2 2 2 2 2 2 1 1 1 1 2 2 4 10 5 -5 -4 -4 2 5 6 7 8 10 9 7 10 8 8 7 6 7 8 7 8 7 7 5 4 4 4 4
3 2 2 2 2 2 2 2 2 1 1 1 2 1 5 7 5 2 -5 -2 2 5 6 7 8 9 10 8 7 9 8 7 6 7 7 6 8 8 8 5 4 4 4 4 4
3 2 2 2 2 2 2 2 2 2 2 1 1 1 4 8 3 2 2 2 5 6 7 6 8 8 6 7 8 7 7 8 7 7 7 8 8 7 7 5 5 5 5 4 4
3 2 2 2 2 2 2 2 2 2 1 1 0 1 5 7 3 3 2 4 4 4 6 6 6 6 7 7 6 6 9 8 8 7 8 7 10 10 6 5 6 5 5 4 4
2 3 3 2 2 2 2 2 2 2 1 1 0 3 7 3 3 4 4 4 4 5 5 4 6 7 6 6 6 8 9 11 8 8 7 7 13 8 6 6 7 6 5 5 4
2 3 3 2 2 2 2 2 2 1 1 1 4 6 6 1 5 3 4 4 4 3 4 3 7 8 8 8 10 10 13 13 10 7 8 9 12 8 6 7 7 6 6 5 4
3 3 3 3 2 2 3 3 2 2 2 2 2 6 5 4 4 3 3 3 5 5 6 7 9 11 12 11 14 13 13 12 12 10 9 11 11 8 7 7 7 7 6 5 5
3 3 3 3 2 3 4 4 6 6 5 5 5 6 5 3 3 4 4 5 6 7 10 9 12 13 12 11 9 9 11 11 10 9 10 11 11 9 7 7 8 7 6 6 5
3 3 3 3 3 4 6 6 3 5 7 4 3 4 2 4 6 5 5 7 8 10 9 10 12 10 9 7 8 9 11 12 11 9 10 11 12 9 8 8 7 7 6 6 5
3 3 3 3 4 6 6 5 3 3 8 5 4 4 5 5 6 6 6 7 8 10 10 11 9 7 7 9 9 11 11 11 13 10 9 11 13 11 9 7 7 6 5 5 5
3 3 3 3 5 6 5 3 3 4 9 7 6 5 5 5 6 4 4 6 8 9 9 9 7 7 8 9 9 12 9 9 10 12 17 11 18 13 10 10 8 7 6 6 5
3 3 3 3 7 8 5 6 5 5 16 7 7 4 6 7 6 6 4 6 8 8 7 9 8 8 9 9 8 10 8 9 9 12 13 14 17 14 11 12 10 8 7 6 5
4 3 3 6 6 6 5 6 6 10 16 9 6 7 8 7 6 6 5 5 5 7 7 8 6 7 8 6 7 7 9 10 12 12 18 15 15 15 13 11 10 8 7 6 5
4 4 5 4 6 5 5 5 10 15 7 9 8 8 9 8 7 6 7 8 10 12 11 9 9 7 6 8 8 10 13 16 17 18 20 13 15 15 10 9 8 8 7 6 4
4 5 5 5 7 6 5 8 14 10 10 7 7 9 9 7 7 7 8 9 7 9 11 12 14 8 6 8 10 11 13 16 19 18 19 13 18 15 9 7 7 6 6 5 6
5 5 4 3 3 5 8 12 12 9 7 7 7 9 9 7 8 9 9 10 8 8 12 12 12 7 6 7 9 11 13 11 14 14 18 17 13 10 9 9 7 7 6 7 8
5 4 4 1 3 6 10 12 9 6 6 6 10 9 11 10 9 10 10 8 8 7 8 10 13 8 7 7 8 10 9 13 14 19 22 18 16 16 12 10 8 8 7 8 8
4 6 3 3 5 8 12 10 7 5 5 7 9 9 9 9 9 10 10 8 7 7 7 9 11 10 8 10 11 11 12 12 12 15 19 20 17 10 11 9 9 8 7 8 8
4 8 3 5 8 11 11 8 7 6 5 6 7 8 9 9 9 10 10 9 6 6 9 9 11 14 12 8 8 10 11 12 15 17 16 17 16 8 8 8 8 8 8 8 8
7 6 3 3 10 10 8 6 6 7 7 7 8 8 8 9 11 9 8 6 6 7 9 9 12 15 13 11 8 11 10 10 12 13 16 18 17 7 7 8 7 9 9 8 7
6 8 5 7 7 9 10 8 8 6 6 6 7 6 8 9 8 10 9 6 5 6 6 7 11 13 15 12 10 11 10 10 12 16 16 15 13 10 9 8 9 9 9 8 7
6 8 7 9 9 8 9 7 8 8 6 6 7 8 9 11 10 10 8 8 6 6 7 9 13 11 10 8 9 9 10 10 11 12 15 13 13 10 9 9 9 9 8 8 8
7 7 6 8 8 9 9 8 8 8 8 8 8 7 8 10 9 10 9 9 10 8 10 9 12 12 12 9 9 10 10 10 10 10 11 11 12 8 7 8 8 8 8 8 8
5 5 6 8 8 8 9 8 7 7 6 6 7 8 8 7 7 8 8 8 8 9 10 10 11 13 15 11 11 14 11 10 10 9 10 13 11 8 9 9 9 8 8 7 7